カタログに戻る

COSMOS 530

運用中軍事LEO
NORAD 6265·PAYLOAD·🇷🇺 Russia

打ち上げ Nov 1, 1972 から Plesetsk Cosmodrome

Loading…

次のパス (今後24時間)

TLE

最新Source: Space-Track

元期: Sep 14, 2026, 11:30 UTC

1 06265U 72087C   26257.47985134 -.00000003  00000-0  74846-4 0  9993
2 06265  74.0363 177.4595 0087536 242.6718 237.5692 12.65678662488880

AllMySatでCOSMOS 530をリアルタイム追跡

Download on the App Store